Location: Arroyo Castaña
(40.2712°N, 4.6386°W)
Time: 13:28:50
(UTC+00:00)

Daily predictions for brighter satellites

Satellite Brightness Start Highest point End
(mag) Time Altitude Azimuth Time Altitude Azimuth Time Altitude Azimuth
Cosmos 1470 Rocket 4.2 18:52:13 10° SSE 18:56:17 36° E 19:00:23 10° NNE
EXPRESS MD2 4.2 18:55:36 10° NNW 18:57:04 15° NNE 18:58:30 10° ENE
Meteor 1-11 Rocket 3.9 18:51:29 10° S 18:57:25 81° E 19:03:18 10° NNE
Okean O Rocket 2.4 18:56:04 10° SE 18:59:56 31° ENE 19:03:49 10° N
IGS 5A 4.1 19:05:30 10° SE 19:09:14 35° ENE 19:12:59 10° N
Cosmos 1140 Rocket 3.4 19:06:38 10° NNW 19:11:51 78° ENE 19:17:04 10° SSE
Exosat Rocket 3.9 19:07:27 10° S 19:12:10 43° ESE 19:17:37 10° NNE
YAOGAN 1 2.6 19:11:11 10° SSE 19:15:30 86° WSW 19:19:50 10° NNW
ISS -2.0 19:12:44 10° W 19:15:46 31° NNW 19:18:47 10° NE
SL-27 R/B 3.3 19:13:06 10° SSE 19:15:53 25° ESE 19:18:41 10° NE
Cosmos 2084 Rocket 3.9 19:15:36 10° NNW 19:19:07 35° NE 19:21:55 15° ESE
Cosmos 1727 Rocket 4.0 19:12:59 10° S 19:19:17 72° E 19:25:33 10° NNE
USA 306 3.2 19:15:59 10° NW 19:19:34 40° NE 19:22:14 16° E
Cosmos 1975 3.7 19:18:22 10° SSE 19:21:39 26° E 19:24:59 10° NNE
CSL-04 Rocket 4.5 19:17:07 10° SE 19:21:57 32° ENE 19:26:47 10° N
Cosmos 2322 Rocket 2.6 19:16:54 10° NNW 19:22:35 70° WSW 19:28:14 10° SSE
Cosmos 2237 Rocket 4.2 19:23:16 10° NE 19:23:42 10° NE 19:24:07 10° NE
Cosmos 1842 3.1 19:21:35 10° N 19:25:24 70° E 19:29:10 10° SSE
SJ-6B 3.3 19:23:44 10° SE 19:27:26 38° ENE 19:31:04 10° N
USA 186 2.7 19:26:12 18° ESE 19:27:42 27° ENE 19:30:22 10° NNE
In-Cosmos 22 4.4 19:23:23 10° N 19:28:52 51° ENE 19:34:26 10° SSE
Cosmos 407 Rocket 3.6 19:23:46 10° NNW 19:29:06 89° WSW 19:34:27 10° SSE
Cosmos 1626 2.4 19:26:30 10° N 19:29:53 39° ENE 19:33:09 11° SSE
KORONAS-FOTON 4.4 19:26:23 10° N 19:29:54 35° ENE 19:33:03 12° SE
CZ-4B R/B 3.4 19:26:48 10° SSE 19:32:29 85° WSW 19:38:10 10° NNW
Cosmos 1371 Rocket 3.9 19:28:55 10° SSW 19:34:12 79° ESE 19:39:29 10° NNE
USA 267 3.9 19:29:01 10° SSE 19:35:25 56° SW 19:41:52 10° NW
Cosmos 2322 4.3 19:30:39 10° N 19:35:54 37° ENE 19:39:23 19° ESE
Cosmos 2333 Rocket 2.2 19:35:48 10° NNW 19:41:37 80° ENE 19:47:21 10° SSE
CZ-4 R/B 1.5 19:38:42 10° S 19:42:29 70° WSW 19:46:20 10° NNW
Cosmos 2056 Rocket 3.4 19:37:52 10° SSW 19:43:01 89° ESE 19:48:09 10° NNE
Milstar 3 Cent rocket 4.4 19:40:28 10° WSW 19:46:38 33° S 19:55:21 15° SE
Meteor 2-9 Rocket 4.4 19:41:28 10° SSW 19:47:02 75° W 19:52:30 10° N
Cosmos 1707 2.5 19:43:49 10° N 19:47:37 74° E 19:51:23 10° SSE
Cosmos 1933 Rocket 3.4 19:43:28 10° S 19:47:46 76° E 19:52:06 10° N
Feng Yun 1-1 Rocket 4.2 19:44:53 10° SSE 19:50:21 89° WSW 19:55:59 10° NNW
USA 307 2.8 19:47:41 10° NW 19:51:28 56° NE 19:52:43 36° E
USA 305 2.8 19:47:45 10° NW 19:51:29 53° NE 19:52:42 36° E
SPOT 1/Viking Rocket 4.3 19:50:09 25° ESE 19:52:01 33° ENE 19:56:37 10° N
Cosmos 2219 Rocket 2.2 19:46:24 10° NNW 19:52:04 64° ENE 19:56:03 20° SE
COSMOS 2428 3.3 19:47:25 10° N 19:52:46 39° ENE 19:55:09 27° ESE
Timation 1 Rocket 4.3 19:48:04 10° SSW 19:54:02 83° ESE 20:00:05 10° NNE
Resurs 01 Rocket 2.6 19:54:51 26° ENE 19:55:02 27° ENE 19:58:45 10° NNE
CSL-04 Debris 4.1 19:50:19 10° SSE 19:55:39 69° ENE 20:01:04 10° N
Geosat 4.5 19:54:17 28° ESE 19:56:21 42° ENE 20:01:03 10° NNW
Cosmos 1624 Rocket 4.3 19:51:39 10° SSW 19:56:54 70° WNW 20:02:13 10° NNE
Cosmos 1869 Rocket 3.7 19:52:48 10° SSE 19:56:54 45° E 20:01:03 10° NNE
Cosmos 1459 Rocket 3.8 19:51:10 10° N 19:57:15 77° E 20:03:18 10° S
Cosmos 1725 Rocket 4.1 19:54:03 10° N 20:00:02 49° ENE 20:03:53 22° SE
Okean 1-7 3.0 19:56:10 10° N 20:00:34 87° WSW 20:04:53 10° S
Okean 2 4.3 19:59:58 10° NNE 20:02:56 29° ENE 20:02:56 29° ENE
CENTAUR R/B 3.5 20:00:04 10° NNW 20:08:09 54° NE 20:12:44 30° ESE
Okean 3 3.8 20:05:39 10° NNW 20:09:49 65° W 20:14:00 10° S
Cosmos 1802 Rocket 3.9 20:04:26 10° N 20:10:42 78° E 20:17:00 10° S
IRS-1C Rocket 4.2 20:08:49 35° SE 20:10:45 53° ENE 20:15:53 10° N
Cosmos 1674 2.9 20:08:26 10° NNW 20:12:07 66° W 20:14:24 22° S
Cosmos 1900 4.3 20:08:36 10° SSW 20:13:35 81° WNW 20:18:31 10° NNE
Cosmos 2098 Rocket 3.4 20:11:09 10° S 20:15:53 86° E 20:21:51 10° N
Iridium 4 Rocket 2.8 20:12:51 10° N 20:17:03 67° E 20:17:31 60° SE
Cosmos 1452 Rocket 3.5 20:15:42 10° S 20:20:51 59° ESE 20:26:02 10° NNE
Resurs 1-3 3.8 20:18:17 22° S 20:21:03 69° W 20:25:25 10° NNW
Cosmos 2360 Rocket 3.8 20:17:02 10° NW 20:21:59 32° WSW 20:26:54 10° SSW
Okean-O 2.5 20:21:14 47° SSE 20:22:30 85° ENE 20:26:57 10° NNW
USA 308 2.5 20:19:13 10° NW 20:22:59 77° SW 20:22:59 77° SW
Tiangong 0.7 20:22:40 10° SW 20:23:43 11° SW 20:23:49 11° SSW
Cosmos 1703 Rocket 4.3 20:21:41 10° NNW 20:26:02 53° W 20:29:30 15° SSW
Cosmos 676 Rocket 4.1 20:21:29 10° NNW 20:26:43 75° WSW 20:29:08 32° S
Cosmos 2123 Rocket 4.1 20:22:34 10° S 20:28:50 79° W 20:35:12 10° N
SL-16 R/B 4.4 20:29:10 10° NNE 20:30:33 11° NE 20:30:33 11° NE
Cosmos 2016 Rocket 3.9 20:25:57 10° N 20:32:05 87° W 20:36:03 23° S
Cosmos 1733 3.5 20:32:30 57° WSW 20:32:57 64° W 20:36:42 10° N
Landsat 5 3.9 20:30:52 10° N 20:33:43 48° N 20:33:43 48° N
Okean O Rocket 3.9 20:32:43 10° SSW 20:36:15 23° W 20:39:48 10° NW
Cosmos 1726 4.4 20:42:27 17° N 20:42:27 17° N 20:43:21 10° N
Cosmos 1741 Rocket 4.3 20:34:56 10° N 20:39:27 48° NE 20:39:27 48° NE
SL-08 R/B 4.5 20:34:50 10° N 20:41:15 86° W 20:44:19 33° S
Cosmos 2242 Rocket 3.9 20:36:56 10° NNW 20:41:30 67° W 20:42:18 54° SSW
Cosmos 1447 Rocket 4.5 20:43:25 58° E 20:43:25 58° E 20:49:23 10° NNE
DMSP B5D2-7 4.5 20:49:47 80° SE 20:50:04 86° ENE 20:55:31 10° NNW
ISS -0.8 20:51:46 10° NW 20:53:05 13° NNW 20:53:05 13° NNW
Terra 4.2 20:56:53 11° NNE 20:56:53 11° NNE 20:57:15 10° NNE
Cosmos 1867 3.6 20:50:47 10° SSW 20:55:32 70° SW 20:55:32 70° SW
ADEOS Rocket 4.3 20:58:19 27° NE 20:58:19 27° NE 21:02:32 10° N
NOSS 0 Rocket 3.7 20:53:23 10° NNW 20:59:37 83° ENE 20:59:45 82° E
SL-8 R/B 4.2 20:55:34 10° WNW 20:59:27 55° W 20:59:27 55° W
Ariane Rocket 4.2 21:02:48 32° NNE 21:02:48 32° NNE 21:05:39 10° N
IRS-1A Rocket 4.3 21:04:06 79° NNE 21:04:06 79° NNE 21:09:43 10° NNW
Cosmos 2237 Rocket 2.8 21:03:23 10° NNW 21:07:37 47° NNE 21:07:37 47° NNE
Cosmos 1818 4.4 21:07:51 10° NW 21:12:59 43° WSW 21:13:08 43° WSW
FALCON 9 R/B 3.3 21:07:39 10° W 21:25:42 61° S 21:25:42 61° S
Cosmos 1980 4.5 21:23:55 10° NNW 21:27:56 48° NNW 21:27:56 48° NNW
CZ-4C R/B 4.3 21:25:07 10° NNW 21:30:34 24° NE 21:30:34 24° NE
Resurs 01 Rocket 3.7 21:32:22 25° WNW 21:32:22 25° WNW 21:35:12 10° NW
COSMOS 2428 4.2 21:31:57 10° NW 21:36:50 29° WSW 21:37:12 29° WSW
NOSS 3-2 (A) 4.4 21:32:03 10° NW 21:39:42 59° WSW 21:40:36 56° SW
Cosmos 2297 Rocket 4.2 21:50:34 21° N 21:50:34 21° N 21:52:29 10° NNE
NOSS 3-2 (C) 4.1 21:40:28 10° NW 21:47:40 79° NW 21:47:40 79° NW
CENTAUR R/B 3.9 21:51:00 10° NW 21:58:59 44° WSW 21:59:57 43° SW
USA 238 DEB 4.3 21:53:56 10° NW 21:59:44 59° NW 21:59:44 59° NW
USA 238 4.3 21:54:02 10° NW 21:59:49 59° NW 21:59:49 59° NW
SL-16 R/B 4.3 22:10:33 10° NNW 22:12:26 22° NNW 22:12:26 22° NNW
